Location: Colle Santa Colomba
(42.0333°N, 12.5667°E)
Time: 03:06:44
(UTC+00:00)

SJ-11-01 - Pass Details

Date: 25 October 2021
Orbit: 685 x 700 km, 97.9° (Epoch: 28 November)

Event Time Altitude Azimuth Distance (km) Brightness Sun altitude
Rises 17:09:45 0° 154° (SSE) 3,045 7.4 -11.2°
Reaches altitude 10° 17:12:01 10° 149° (SSE) 2,135 6.6 -11.6°
Maximum altitude 17:16:34 55° 73° (ENE) 837 4.4 -12.4°
Drops below altitude 10° 17:21:11 10° 356° (N) 2,160 6.8 -13.3°
Sets 17:23:28 0° 352° (N) 3,084 7.7 -13.7°
